Location: Novokuznetsk
(53.7500°N, 87.1000°E)
Time: 16:11:00
(UTC+06:00)

ISS - Visible Passes

Search period start: 21 September 2018 00:00
Search period end: 01 October 2018 00:00
Orbit: 403 x 408 km, 51.6° (Epoch: 21 September)

Date Brightness Start Highest point End Pass type
(mag) Time Alt. Az. Time Alt. Az. Time Alt. Az.
23 Sep -1.1 20:33:54 10° SW 20:34:12 12° SW 20:34:12 12° SW visible
24 Sep -2.4 19:42:29 10° SSW 19:44:48 22° SSE 19:44:48 22° SSE visible
25 Sep -1.9 18:51:21 10° S 18:53:29 16° SE 18:55:15 11° ESE visible
25 Sep -2.1 20:26:17 10° WSW 20:27:56 25° SW 20:27:56 25° SW visible
26 Sep -3.0 19:34:36 10° SW 19:37:39 34° SSE 19:38:15 32° SE visible
26 Sep -0.8 21:10:38 10° WSW 21:10:56 12° WSW 21:10:56 12° WSW visible
27 Sep -2.5 18:43:05 10° SSW 18:45:54 26° SSE 18:48:27 11° E visible
27 Sep -2.8 20:18:47 10° WSW 20:21:08 39° SW 20:21:08 39° SW visible
28 Sep -3.4 19:26:59 10° WSW 19:30:11 48° SSE 19:31:15 33° ESE visible
28 Sep -1.0 21:03:14 10° W 21:03:56 15° W 21:03:56 15° W visible
29 Sep -3.0 18:35:14 10° SW 18:38:20 38° SSE 18:41:20 11° E visible
29 Sep -3.2 20:11:21 10° W 20:14:00 49° SW 20:14:00 49° SW visible
30 Sep -3.6 19:19:27 10° WSW 19:22:43 58° S 19:24:01 31° ESE visible
30 Sep -1.1 20:55:50 10° W 20:56:41 16° W 20:56:41 16° W visible
